Logan, UT

7:50 PM MST on December 15, 2019 (GMT -0700)
Logan-Cache

Weather History for KLGU - October, 2019

Change the Weather History Date:

Saturday, October 12, 2019

  Actual Average Record
Temperature  
Mean Temperature 38 °F -  
Max Temperature 57 °F 64 °F 81 °F (1991)
Min Temperature 19 °F 34 °F 21 °F (2001)
Degree Days  
Heating Degree Days 27    
Moisture  
Dew Point 19 °F    
Average Humidity 55    
Maximum Humidity 82    
Minimum Humidity 17    
Precipitation  
Precipitation 0.00 in - - ()
Sea Level Pressure  
Sea Level Pressure 30.18 in    
Wind  
Wind Speed 1 mph ()    
Max Wind Speed 7 mph    
Max Gust Speed -    
Visibility 10.0 miles    
Events      
Averages and records for this station are not official NWS values.
T = Trace of Precipitation, MM = Missing Value Source: Averaged Metar Reports

Daily Weather History Graph

Daily Weather History Graph

Search for Another Location

Airport or City:

Astronomy

Oct. 12, 2019 Rise Set
Actual Time 7:36 AM MDT 6:50 PM MDT
Civil Twilight 7:08 AM MDT 7:18 PM MDT
Nautical Twilight 6:35 AM MDT 7:51 PM MDT
Astronomical Twilight 6:03 AM MDT 8:23 PM MDT
Moon 6:50 PM MDT (10/12) 6:14 AM MDT (10/12)
Length of Visible Light 12h 10m
Length of Day
11h 14m
Waxing Gibbous, 99% of the Moon is Illuminated
Oct 12
Waxing Gibbous
Oct 13
Full
Oct 21
Last Quarter
Oct 27
New
Nov 4
First Quarter

Hourly Weather History & Observations

Time (MDT) Temp. Windchill Dew Point Humidity Pressure Visibility Wind Dir Wind Speed Gust Speed Precip Events Conditions
12:51 AM 27.0 °F - 19.0 °F 72% 30.28 in 10.0 mi Calm Calm - N/A   Clear
1:51 AM 25.0 °F - 17.1 °F 72% 30.28 in 10.0 mi Calm Calm - N/A   Clear
2:51 AM 25.0 °F - 18.0 °F 75% 30.27 in - Calm Calm - N/A   Clear
3:51 AM 24.1 °F - 17.1 °F 75% 30.26 in 10.0 mi Calm Calm - N/A   Clear
4:51 AM 21.9 °F - 17.1 °F 82% 30.26 in 10.0 mi Calm Calm - N/A   Clear
5:51 AM 23.0 °F - 17.1 °F 78% 30.25 in 10.0 mi Calm Calm - N/A   Clear
6:51 AM 19.9 °F - 15.1 °F 81% 30.25 in 10.0 mi Calm Calm - N/A   Clear
7:51 AM 21.0 °F - 16.0 °F 81% 30.27 in 10.0 mi Calm Calm - N/A   Clear
8:51 AM 25.0 °F - 19.9 °F 81% 30.26 in 10.0 mi Calm Calm - N/A   Clear
9:51 AM 30.9 °F - 21.9 °F 69% 30.25 in - Calm Calm - N/A   Clear
10:51 AM 35.1 °F 32.2 °F 21.0 °F 57% 30.25 in - WNW 3.5 mph - N/A   Clear
11:51 AM 41.0 °F 39.0 °F 19.9 °F 43% 30.21 in - Variable 3.5 mph - N/A   Clear
12:51 PM 46.0 °F 43.9 °F 18.0 °F 33% 30.17 in 10.0 mi North 4.6 mph - N/A   Clear
1:51 PM 51.1 °F - 17.1 °F 26% 30.13 in 10.0 mi WNW 5.8 mph - N/A   Clear
2:51 PM 53.1 °F - 15.1 °F 22% 30.10 in 10.0 mi Calm Calm - N/A   Clear
3:51 PM 55.0 °F - 14.0 °F 20% 30.09 in 10.0 mi Calm Calm - N/A   Clear
4:51 PM 57.0 °F - 12.0 °F 17% 30.07 in 10.0 mi Calm Calm - N/A   Clear
5:51 PM 55.9 °F - 18.0 °F 23% 30.06 in 10.0 mi North 5.8 mph - N/A   Clear
6:51 PM 46.9 °F - 23.0 °F 39% 30.09 in 10.0 mi North 6.9 mph - N/A   Clear
7:51 PM 44.1 °F - 21.9 °F 42% 30.10 in 10.0 mi Calm Calm - N/A   Clear
8:51 PM 39.0 °F - 23.0 °F 53% 30.11 in 10.0 mi Calm Calm - N/A   Clear
9:51 PM 36.0 °F - 21.9 °F 57% 30.09 in 10.0 mi Calm Calm - N/A   Clear
10:51 PM 32.0 °F 28.7 °F 21.0 °F 64% 30.08 in 10.0 mi East 3.5 mph - N/A   Clear
11:51 PM 33.1 °F - 19.9 °F 59% 30.07 in 10.0 mi Calm Calm - N/A   Clear